timestamp,wind_dir_avg,wind_spd_avg,wind_spd_max_dir,wind_spd_gust,battery_voltage,lat,long
2023-11-18 00:04:00+00:00,214.0,4.43,211.0,6.74,12.33,47.59359,-54.27349
2023-11-18 00:14:01+00:00,228.0,4.23,229.0,4.76,12.33,47.59359,-54.27349
2023-11-18 00:24:01+00:00,223.0,5.51,230.0,6.72,12.33,47.59359,-54.27349
2023-11-18 00:34:01+00:00,221.0,4.55,214.0,5.6,12.33,47.59359,-54.27349
2023-11-18 00:44:01+00:00,223.0,7.92,223.0,8.76,12.33,47.59359,-54.27349
2023-11-18 00:54:01+00:00,229.0,6.36,233.0,7.35,12.33,47.59359,-54.27349
2023-11-18 01:04:01+00:00,224.0,6.91,221.0,8.53,12.33,47.59359,-54.27349
2023-11-18 01:14:00+00:00,230.0,7.41,233.0,8.31,12.33,47.59359,-54.27349
2023-11-18 01:24:00+00:00,234.0,6.95,238.0,7.77,12.33,47.59359,-54.27349
2023-11-18 01:34:00+00:00,230.0,5.79,220.0,6.75,12.33,47.59359,-54.27349
2023-11-18 01:44:00+00:00,233.0,6.99,234.0,7.64,12.33,47.59359,-54.27349
2023-11-18 01:54:00+00:00,241.0,6.1,243.0,6.66,12.33,47.59359,-54.27349
2023-11-18 02:04:00+00:00,232.0,4.34,239.0,5.15,12.33,47.59359,-54.27349
2023-11-18 02:14:01+00:00,215.0,5.86,213.0,6.91,12.33,47.59359,-54.27349
2023-11-18 02:24:01+00:00,220.0,6.03,220.0,7.44,12.33,47.59359,-54.27349
2023-11-18 02:34:01+00:00,220.0,6.61,222.0,7.67,12.33,47.59359,-54.27349
2023-11-18 02:44:01+00:00,225.0,7.65,220.0,8.72,12.33,47.59359,-54.27349
2023-11-18 02:54:01+00:00,227.0,7.71,223.0,8.56,12.33,47.59359,-54.27349
2023-11-18 03:04:01+00:00,225.0,7.93,228.0,9.02,12.33,47.59359,-54.27349
2023-11-18 03:14:01+00:00,219.0,8.09,223.0,8.98,12.33,47.59359,-54.27349
2023-11-18 03:24:01+00:00,229.0,7.59,227.0,8.54,12.33,47.59359,-54.27349
2023-11-18 03:34:01+00:00,216.0,8.07,218.0,8.8,12.33,47.59359,-54.27349
2023-11-18 03:44:01+00:00,212.0,8.53,217.0,10.54,12.33,47.59359,-54.27349
2023-11-18 03:54:01+00:00,217.0,9.81,210.0,12.11,12.33,47.59359,-54.27349
2023-11-18 04:04:01+00:00,222.0,9.65,219.0,10.85,12.33,47.59359,-54.27349
2023-11-18 04:14:00+00:00,224.0,10.35,237.0,15.22,12.25,47.59359,-54.27349
2023-11-18 04:24:00+00:00,216.0,10.45,213.0,12.22,12.25,47.59359,-54.27349
2023-11-18 04:34:00+00:00,226.0,11.94,235.0,14.97,12.25,47.59359,-54.27349
2023-11-18 04:44:00+00:00,219.0,9.92,217.0,11.26,12.25,47.59359,-54.27349
2023-11-18 04:54:00+00:00,230.0,11.97,239.0,15.86,12.25,47.59359,-54.27349
2023-11-18 05:04:00+00:00,220.0,10.83,232.0,14.09,12.25,47.59359,-54.27349
2023-11-18 05:14:01+00:00,221.0,11.99,235.0,16.15,12.25,47.59359,-54.27349
2023-11-18 05:24:01+00:00,226.0,13.54,231.0,15.76,12.25,47.59359,-54.27349
2023-11-18 05:34:01+00:00,224.0,10.83,233.0,12.74,12.25,47.59359,-54.27349
2023-11-18 05:44:01+00:00,226.0,10.63,233.0,15.3,12.25,47.59359,-54.27349
2023-11-18 05:54:01+00:00,223.0,13.08,231.0,16.61,12.25,47.59359,-54.27349
2023-11-18 06:04:01+00:00,231.0,13.11,240.0,16.24,12.25,47.59359,-54.27349
2023-11-18 06:14:00+00:00,224.0,11.38,228.0,14.36,12.25,47.59359,-54.27349
2023-11-18 06:24:00+00:00,220.0,10.8,231.0,14.58,12.25,47.59359,-54.27349
2023-11-18 06:34:00+00:00,226.0,13.7,229.0,16.63,12.25,47.59359,-54.27349
2023-11-18 06:44:00+00:00,227.0,11.58,239.0,16.1,12.25,47.59359,-54.27349
2023-11-18 06:54:00+00:00,227.0,13.6,235.0,16.92,12.25,47.59359,-54.27349
2023-11-18 07:04:00+00:00,232.0,15.49,228.0,17.29,12.25,47.59359,-54.27349
2023-11-18 07:14:00+00:00,220.0,12.43,232.0,16.89,12.25,47.59359,-54.27349
2023-11-18 07:24:00+00:00,224.0,13.91,233.0,17.26,12.25,47.59359,-54.27349
2023-11-18 07:34:00+00:00,221.0,14.64,225.0,18.11,12.25,47.59359,-54.27349
2023-11-18 07:44:00+00:00,221.0,14.37,225.0,18.58,12.25,47.59359,-54.27349
2023-11-18 07:54:00+00:00,228.0,14.74,229.0,17.34,12.25,47.59359,-54.27349
2023-11-18 08:04:00+00:00,229.0,13.99,225.0,17.24,12.25,47.59359,-54.27349
2023-11-18 08:14:01+00:00,229.0,14.16,236.0,16.59,12.17,47.59359,-54.27349
2023-11-18 08:24:01+00:00,227.0,14.34,227.0,17.97,12.17,47.59359,-54.27349
2023-11-18 08:34:01+00:00,227.0,15.09,229.0,17.82,12.17,47.59359,-54.27349
2023-11-18 08:44:01+00:00,218.0,12.0,237.0,16.44,12.17,47.59359,-54.27349
2023-11-18 08:54:01+00:00,215.0,10.39,212.0,11.53,12.17,47.59359,-54.27349
2023-11-18 09:04:01+00:00,217.0,11.82,229.0,15.83,12.17,47.59359,-54.27349
2023-11-18 09:14:00+00:00,214.0,12.04,214.0,13.52,12.17,47.59359,-54.27349
2023-11-18 09:24:00+00:00,221.0,10.59,236.0,14.21,12.17,47.59359,-54.27349
2023-11-18 09:34:00+00:00,224.0,10.6,234.0,13.31,12.17,47.59359,-54.27349
2023-11-18 09:44:00+00:00,222.0,10.12,238.0,15.09,12.17,47.59359,-54.27349
2023-11-18 09:54:00+00:00,224.0,9.74,227.0,11.08,12.17,47.59359,-54.27349
2023-11-18 10:04:00+00:00,224.0,8.96,227.0,10.82,12.17,47.59359,-54.27349
2023-11-18 10:14:01+00:00,223.0,10.83,237.0,15.06,12.17,47.59359,-54.27349
2023-11-18 10:24:01+00:00,228.0,13.72,238.0,16.58,12.17,47.59359,-54.27349
2023-11-18 10:34:01+00:00,222.0,10.83,234.0,13.53,12.17,47.59359,-54.27349
2023-11-18 10:44:01+00:00,223.0,12.8,234.0,16.9,12.17,47.59359,-54.27349
2023-11-18 10:54:01+00:00,220.0,11.74,226.0,13.9,12.17,47.59359,-54.27349
2023-11-18 11:04:01+00:00,217.0,10.36,218.0,11.96,12.17,47.59359,-54.27349
2023-11-18 11:14:00+00:00,220.0,9.77,217.0,11.29,12.17,47.59359,-54.27349
2023-11-18 11:24:00+00:00,218.0,8.96,216.0,10.65,12.17,47.59359,-54.27349
2023-11-18 11:34:00+00:00,218.0,10.18,224.0,11.81,12.17,47.59359,-54.27349
2023-11-18 11:44:00+00:00,217.0,10.81,216.0,12.35,12.17,47.59359,-54.27349
2023-11-18 11:54:00+00:00,218.0,7.91,225.0,10.08,12.17,47.59359,-54.27349
2023-11-18 12:04:00+00:00,227.0,7.14,230.0,8.83,12.17,47.59359,-54.27349
2023-11-18 12:14:00+00:00,228.0,8.56,226.0,9.78,12.17,47.59359,-54.27349
2023-11-18 12:24:00+00:00,227.0,8.54,220.0,10.06,12.17,47.59359,-54.27349
2023-11-18 12:34:00+00:00,227.0,8.03,224.0,9.35,12.17,47.59359,-54.27349
2023-11-18 12:44:00+00:00,232.0,7.73,236.0,9.39,12.17,47.59359,-54.27349
2023-11-18 12:54:00+00:00,219.0,8.8,223.0,9.99,12.17,47.59359,-54.27349
2023-11-18 13:04:00+00:00,216.0,10.44,215.0,12.68,12.17,47.59359,-54.27349
2023-11-18 13:14:01+00:00,217.0,9.74,216.0,11.21,12.57,47.59359,-54.27349
2023-11-18 13:24:01+00:00,212.0,8.84,210.0,11.05,12.57,47.59359,-54.27349
2023-11-18 13:34:01+00:00,217.0,8.86,216.0,10.33,12.57,47.59359,-54.27349
2023-11-18 13:44:01+00:00,214.0,9.81,215.0,11.33,12.57,47.59359,-54.27349
2023-11-18 13:54:01+00:00,215.0,8.89,213.0,11.15,12.57,47.59359,-54.27349
2023-11-18 14:04:01+00:00,219.0,7.21,216.0,8.41,12.57,47.59359,-54.27349
2023-11-18 14:14:00+00:00,222.0,8.69,229.0,9.79,12.97,47.59359,-54.27349
2023-11-18 14:24:00+00:00,218.0,7.54,222.0,9.46,12.97,47.59359,-54.27349
2023-11-18 14:34:00+00:00,220.0,7.23,217.0,8.81,12.97,47.59359,-54.27349
2023-11-18 14:44:00+00:00,221.0,10.25,228.0,12.68,12.97,47.59359,-54.27349
2023-11-18 14:54:00+00:00,218.0,9.16,222.0,10.94,12.97,47.59359,-54.27349
2023-11-18 15:04:00+00:00,220.0,10.31,219.0,12.53,12.97,47.59359,-54.27349
2023-11-18 15:14:00+00:00,217.0,11.17,222.0,12.98,12.89,47.59359,-54.27349
2023-11-18 15:24:00+00:00,222.0,13.14,230.0,17.01,12.89,47.59359,-54.27349
2023-11-18 15:34:00+00:00,225.0,12.28,235.0,16.46,12.89,47.59359,-54.27349
2023-11-18 15:44:00+00:00,223.0,13.93,235.0,17.12,12.89,47.59359,-54.27349
2023-11-18 15:54:00+00:00,225.0,13.61,236.0,17.26,12.89,47.59359,-54.27349
2023-11-18 16:04:00+00:00,223.0,11.35,233.0,15.44,12.89,47.59359,-54.27349
2023-11-18 16:14:00+00:00,215.0,11.09,224.0,12.97,13.76,47.59359,-54.27349
2023-11-18 16:24:00+00:00,215.0,13.19,227.0,16.87,13.76,47.59359,-54.27349
2023-11-18 16:34:00+00:00,221.0,15.29,224.0,18.37,13.76,47.59359,-54.27349
2023-11-18 16:44:00+00:00,222.0,14.74,223.0,18.51,13.76,47.59359,-54.27349
2023-11-18 16:54:00+00:00,221.0,17.47,223.0,20.34,13.76,47.59359,-54.27349
2023-11-18 17:04:00+00:00,225.0,15.93,224.0,19.29,13.76,47.59359,-54.27349
2023-11-18 17:14:01+00:00,221.0,16.1,226.0,20.05,14.32,47.59359,-54.27349
2023-11-18 17:24:01+00:00,222.0,17.61,224.0,20.04,14.32,47.59359,-54.27349
2023-11-18 17:34:01+00:00,222.0,16.88,223.0,19.57,14.32,47.59359,-54.27349
2023-11-18 17:44:01+00:00,222.0,13.57,229.0,16.94,14.32,47.59359,-54.27349
2023-11-18 17:54:01+00:00,231.0,15.68,225.0,18.25,14.32,47.59359,-54.27349
2023-11-18 18:04:01+00:00,227.0,14.45,236.0,17.25,14.32,47.59359,-54.27349
2023-11-18 18:14:01+00:00,218.0,13.54,225.0,19.08,13.84,47.59359,-54.27349
2023-11-18 18:24:01+00:00,215.0,15.85,223.0,19.55,13.84,47.59359,-54.27349
2023-11-18 18:34:01+00:00,220.0,17.75,221.0,20.46,13.84,47.59359,-54.27349
2023-11-18 18:44:01+00:00,216.0,15.23,222.0,17.49,13.84,47.59359,-54.27349
2023-11-18 18:54:01+00:00,214.0,13.05,221.0,17.54,13.84,47.59359,-54.27349
2023-11-18 19:04:01+00:00,213.0,14.29,221.0,17.66,13.84,47.59359,-54.27349
2023-11-18 19:14:00+00:00,215.0,15.46,224.0,19.18,13.44,47.59359,-54.27349
2023-11-18 19:24:00+00:00,214.0,14.07,221.0,17.11,13.44,47.59359,-54.27349
2023-11-18 19:34:00+00:00,219.0,16.03,221.0,18.96,13.44,47.59359,-54.27349
2023-11-18 19:44:00+00:00,212.0,14.8,216.0,16.38,13.44,47.59359,-54.27349
2023-11-18 19:54:00+00:00,208.0,14.16,214.0,16.42,13.44,47.59359,-54.27349
2023-11-18 20:04:00+00:00,208.0,14.21,209.0,16.7,13.44,47.59359,-54.27349
2023-11-18 20:14:01+00:00,209.0,14.08,211.0,15.55,12.65,47.59359,-54.27349
2023-11-18 20:24:01+00:00,208.0,13.55,208.0,15.76,12.65,47.59359,-54.27349
2023-11-18 20:34:01+00:00,204.0,13.48,207.0,15.51,12.65,47.59359,-54.27349
2023-11-18 20:44:01+00:00,204.0,13.82,212.0,15.66,12.65,47.59359,-54.27349
2023-11-18 20:54:01+00:00,203.0,14.52,205.0,16.5,12.65,47.59359,-54.27349
2023-11-18 21:04:01+00:00,204.0,15.1,217.0,18.66,12.65,47.59359,-54.27349
2023-11-18 21:14:01+00:00,203.0,15.68,203.0,17.76,12.49,47.59359,-54.27349
2023-11-18 21:24:01+00:00,202.0,15.33,200.0,17.35,12.49,47.59359,-54.27349
2023-11-18 21:34:01+00:00,198.0,13.51,200.0,15.63,12.49,47.59359,-54.27349
2023-11-18 21:44:01+00:00,200.0,15.61,201.0,19.3,12.49,47.59359,-54.27349
2023-11-18 21:54:01+00:00,201.0,13.57,210.0,15.87,12.49,47.59359,-54.27349
2023-11-18 22:04:01+00:00,203.0,13.76,212.0,16.28,12.49,47.59359,-54.27349
2023-11-18 22:14:01+00:00,202.0,13.57,209.0,16.2,12.49,47.59359,-54.27349
2023-11-18 22:24:01+00:00,197.0,14.19,207.0,17.74,12.49,47.59359,-54.27349
2023-11-18 22:34:01+00:00,197.0,14.38,190.0,17.29,12.49,47.59359,-54.27349
2023-11-18 22:44:01+00:00,192.0,13.15,193.0,16.55,12.49,47.59359,-54.27349
2023-11-18 22:54:01+00:00,191.0,13.15,191.0,15.88,12.49,47.59359,-54.27349
2023-11-18 23:04:01+00:00,188.0,14.96,190.0,18.4,12.49,47.59359,-54.27349
2023-11-18 23:14:01+00:00,189.0,13.24,191.0,14.93,12.41,47.59359,-54.27349
2023-11-18 23:24:01+00:00,186.0,13.1,183.0,16.06,12.41,47.59359,-54.27349
2023-11-18 23:34:01+00:00,186.0,14.53,185.0,16.98,12.41,47.59359,-54.27349
2023-11-18 23:44:01+00:00,185.0,14.09,179.0,16.16,12.41,47.59359,-54.27349
2023-11-18 23:54:01+00:00,184.0,13.71,187.0,15.51,12.41,47.59359,-54.27349
